Date String (YYYY-MM-DD hh:mm:ss) UTC,Instrument flags,Ambient pressure (hPa),Sample flow (lpm),Bypass flow (lpm),Sample temperature (°C),Ambient temperature (°C),ASC tube jacket temperature (°C),LED temperature (°C),Box temperature (°C),Sample RH (%),Span deviation,Mass concentration (μg/m³),Mass concentration (μg/m³),Mass concentration (μg/m³)
DateTimeUTC,F1_M11,P_M11,Q1_M11,Q2_M11,T1_M11,T2_M11,T3_M11,T4_M11,T5_M11,U1_M11,ZSPAN_M11,X2_M11,X0_M11,X1_M11
2023-03-05 08:00:00,,0815.1,5.00,0.00,22.6,21.6,00.0,31.3,24.4,13.7,-001.0,0010.66,0014.84,0009.89
2023-03-05 08:01:00,,0815.1,5.00,0.00,22.6,21.4,00.0,31.3,24.3,13.7,-001.0,0010.61,0014.76,0009.85
2023-03-05 08:02:00,,0815.1,5.01,0.00,22.6,21.2,00.0,31.3,24.3,13.7,-000.9,0010.60,0014.69,0009.87
2023-03-05 08:03:00,,0815.1,4.99,0.00,22.6,21.0,00.0,31.3,24.3,13.7,-000.6,0010.63,0014.70,0009.91
2023-03-05 08:04:00,,0815.1,5.01,0.00,22.6,20.9,00.0,31.3,24.3,13.7,-000.6,0010.64,0014.67,0009.93
2023-03-05 08:05:00,,0815.2,5.01,0.00,22.5,20.9,00.0,31.3,24.3,13.8,-000.4,0010.71,0014.76,0009.98
2023-03-05 08:06:00,,0815.2,5.00,0.00,22.5,20.8,00.0,31.2,24.2,13.8,-000.2,0010.82,0015.07,0010.05
2023-03-05 08:07:00,,0815.2,5.01,0.00,22.5,20.7,00.0,31.2,24.2,13.8,-000.1,0010.93,0015.37,0010.14
2023-03-05 08:08:00,,0815.1,5.00,0.00,22.5,20.7,00.0,31.2,24.2,13.9,0000.2,0010.99,0015.51,0010.19
2023-03-05 08:09:00,,0815.0,5.00,0.00,22.4,20.7,00.0,31.2,24.1,13.9,0000.1,0010.94,0015.41,0010.16
2023-03-05 08:10:00,,0815.0,5.01,0.00,22.4,20.7,00.0,31.2,24.1,13.9,-000.0,0010.93,0015.40,0010.16
2023-03-05 08:11:00,,0815.0,5.01,0.00,22.4,20.8,00.0,31.2,24.1,13.9,0000.2,0010.90,0015.35,0010.12
2023-03-05 08:12:00,,0815.1,4.98,0.00,22.5,21.8,00.0,31.2,24.3,13.9,0000.2,0010.92,0015.82,0010.09
2023-03-05 08:13:00,,0815.1,4.97,0.00,22.6,23.0,00.0,31.2,24.6,13.8,0000.2,0011.00,0016.18,0010.10
2023-03-05 08:14:00,,0815.0,5.00,0.00,22.7,23.1,00.0,31.2,24.7,13.7,-000.0,0011.01,0016.95,0010.10
2023-03-05 08:15:00,,0815.0,5.01,0.00,22.7,22.7,00.0,31.3,24.6,13.7,-000.0,0011.02,0016.95,0010.13
2023-03-05 08:16:00,,0815.0,5.01,0.00,22.7,22.3,00.0,31.3,24.6,13.7,-000.2,0010.99,0017.37,0010.12
2023-03-05 08:17:00,,0815.0,5.01,0.00,22.7,21.9,00.0,31.3,24.5,13.8,-000.2,0010.94,0017.42,0010.10
2023-03-05 08:18:00,,0815.0,5.00,0.00,22.7,21.7,00.0,31.3,24.5,13.8,-000.2,0010.91,0017.27,0010.09
2023-03-05 08:19:00,,0815.0,5.00,0.00,22.7,21.4,00.0,31.3,24.4,13.9,-000.3,0010.91,0017.20,0010.10
2023-03-05 08:20:00,,0815.0,5.01,0.00,22.6,21.2,00.0,31.3,24.4,13.9,-000.4,0010.96,0017.54,0010.13
2023-03-05 08:21:00,,0815.0,5.00,0.00,22.6,21.1,00.0,31.3,24.3,13.9,-000.3,0010.95,0017.60,0010.11
2023-03-05 08:22:00,,0815.1,5.00,0.00,22.6,21.0,00.0,31.3,24.3,13.9,-000.2,0010.91,0017.52,0010.10
2023-03-05 08:23:00,,0815.0,5.00,0.00,22.6,20.9,00.0,31.3,24.3,13.9,-000.3,0010.88,0017.20,0010.09
2023-03-05 08:24:00,,0815.0,5.01,0.00,22.5,20.7,00.0,31.3,24.2,14.0,-000.0,0010.88,0017.08,0010.12
2023-03-05 08:25:00,,0815.0,5.00,0.00,22.5,20.5,00.0,31.3,24.1,14.0,-000.0,0010.93,0016.45,0010.18
2023-03-05 08:26:00,,0814.9,5.00,0.00,22.4,20.4,00.0,31.3,23.9,13.9,0000.1,0010.95,0016.31,0010.20
2023-03-05 08:27:00,,0814.9,4.99,0.00,22.3,20.2,00.0,31.2,23.9,13.9,0000.2,0011.03,0016.09,0010.26
2023-03-05 08:28:00,,0814.9,5.00,0.00,22.3,20.8,00.0,31.2,24.0,13.8,0000.2,0011.16,0015.97,0010.36
2023-03-05 08:29:00,,0814.9,4.97,0.00,22.4,22.0,00.0,31.2,24.2,13.8,-000.1,0011.25,0016.07,0010.46
2023-03-05 08:30:00,,0815.0,4.99,0.00,22.5,22.8,00.0,31.2,24.4,13.7,-000.0,0011.28,0016.01,0010.52
2023-03-05 08:31:00,,0815.0,5.02,0.00,22.5,22.4,00.0,31.2,24.4,13.7,0000.3,0011.37,0015.94,0010.61
2023-03-05 08:32:00,,0815.0,5.01,0.00,22.5,21.8,00.0,31.2,24.3,13.7,0000.4,0011.55,0016.08,0010.75
2023-03-05 08:33:00,,0815.1,5.00,0.00,22.5,21.4,00.0,31.2,24.1,13.7,0000.2,0011.72,0016.58,0010.88
2023-03-05 08:34:00,,0814.9,5.02,0.00,22.4,21.2,00.0,31.2,24.2,13.6,0000.3,0011.92,0017.51,0011.04
2023-03-05 08:35:00,,0814.9,5.01,0.00,22.4,21.0,00.0,31.2,24.1,13.6,-000.1,0012.02,0018.34,0011.17
2023-03-05 08:36:00,,0814.9,4.99,0.00,22.4,20.8,00.0,31.2,24.1,13.7,-000.2,0012.15,0018.68,0011.24
2023-03-05 08:37:00,,0814.9,5.01,0.00,22.4,20.7,00.0,31.2,24.0,13.7,-000.2,0012.30,0018.95,0011.37
2023-03-05 08:38:00,,0814.9,5.01,0.00,22.3,20.6,00.0,31.2,24.0,13.7,-000.4,0012.44,0019.16,0011.47
2023-03-05 08:39:00,,0814.9,5.00,0.00,22.3,20.5,00.0,31.2,23.9,13.8,-000.5,0012.49,0019.26,0011.50
2023-03-05 08:40:00,,0814.9,4.99,0.00,22.3,20.4,00.0,31.2,23.8,13.8,-000.5,0012.52,0019.36,0011.51
2023-03-05 08:41:00,,0814.9,5.00,0.00,22.3,20.3,00.0,31.1,23.9,13.9,-000.6,0012.62,0019.65,0011.54
2023-03-05 08:42:00,,0814.9,5.01,0.00,22.2,20.3,00.0,31.1,23.9,13.9,-000.6,0012.62,0019.74,0011.54
2023-03-05 08:43:00,,0814.8,5.00,0.00,22.2,20.5,00.0,31.1,23.9,13.9,-000.7,0012.59,0020.05,0011.55
2023-03-05 08:44:00,,0814.8,4.99,0.00,22.3,21.6,00.0,31.1,24.1,13.9,-000.5,0012.59,0019.77,0011.55
2023-03-05 08:45:00,,0814.8,5.01,0.00,22.4,22.6,00.0,31.1,24.4,13.9,-000.6,0012.54,0018.86,0011.55
2023-03-05 08:46:00,,0814.8,5.00,0.00,22.5,22.9,00.0,31.1,24.5,13.8,-000.4,0012.61,0018.24,0011.58
2023-03-05 08:47:00,,0814.7,4.98,0.00,22.5,22.4,00.0,31.2,24.4,13.8,-000.1,0012.59,0018.04,0011.59
2023-03-05 08:48:00,,0815.2,5.00,0.00,22.5,21.9,00.0,31.2,24.3,13.9,-000.0,0012.56,0018.24,0011.59
2023-03-05 08:49:00,,0815.3,4.99,0.00,22.5,21.5,00.0,31.2,24.2,13.9,0000.1,0012.48,0018.10,0011.58
2023-03-05 08:50:00,,0815.1,5.00,0.00,22.5,21.2,00.0,31.2,24.1,14.0,0000.1,0012.42,0017.90,0011.57
2023-03-05 08:51:00,,0814.9,5.00,0.00,22.4,21.0,00.0,31.2,24.1,14.0,0000.1,0012.43,0018.42,0011.57
2023-03-05 08:52:00,,0814.8,5.00,0.00,22.4,20.8,00.0,31.2,24.0,14.0,0000.1,0012.44,0018.98,0011.56
2023-03-05 08:53:00,,0814.9,5.00,0.00,22.4,20.6,00.0,31.2,24.0,14.0,0000.1,0012.45,0019.05,0011.57
2023-03-05 08:54:00,,0814.8,4.99,0.00,22.3,20.5,00.0,31.1,23.9,14.1,0000.3,0012.44,0018.73,0011.56
2023-03-05 08:55:00,,0814.8,5.01,0.00,22.3,20.4,00.0,31.1,23.9,14.2,0000.1,0012.42,0019.42,0011.56
2023-03-05 08:56:00,,0814.7,5.00,0.00,22.3,20.3,00.0,31.1,23.9,14.2,0000.2,0012.43,0019.58,0011.54
2023-03-05 08:57:00,,0815.0,5.00,0.00,22.2,20.2,00.0,31.1,23.8,14.2,0000.0,0012.36,0019.54,0011.50
2023-03-05 08:58:00,,0815.2,4.99,0.00,22.2,20.4,00.0,31.1,23.8,14.3,-000.2,0012.33,0019.51,0011.47
2023-03-05 08:59:00,,0815.0,4.98,0.00,22.3,21.5,00.0,31.0,24.1,14.2,-000.4,0012.32,0019.26,0011.44
